User: anonymous   Login
Location: Edmonton
(53.5500°N, 113.5000°W)
Time: 15:25:54
(UTC-07:00)
Language:

CZ-4C R/B - Orbit

View from above orbital plane
View from above orbital plane
View from above satellite
View from above satellite

Ground track
Ground track

The orbit data is extracted from the following two-line orbital elements,

1 36416U 10009D   17326.94793425 -.00000055 +00000-0 +26762-4 0  9990
2 36416 063.4364 198.3424 0402748 355.9838 003.7996 13.69524591385954
Epoch (UTC): 22 November 2017 22:45:01
Eccentricity: 0.0402748
inclination: 63.4364°
perigee height: 704 km
apogee height: 1298 km
right ascension of ascending node: 198.3424°
argument of perigee: 355.9838°
revolutions per day: 13.69524591
mean anomaly at epoch: 3.7996°
orbit number at epoch: 38595

The dashed part of the orbit path shows where the satellite is in the earth's shadow,  

DLR